GPS BIIR-14M

Last updated on Tue Sep 22 2026 00:03:02 GMT+0000 (Coordinated Universal Time)

1 28874U 05038A 26264.07241019 .00000026 00000+0 00000+0 0 9995 2 28874 54.8068 269.2994 0128760 297.7003 57.6200 2.00559199153756
UTC large
Height (km)
Speed (km/s)
/
Latitude / Longitude
Inclination (degrees)
Orbital Period (minutes)
Azimuth
Elevation
Range (km)
Doppler Factor

Next 0 passes for location: London (51.5072 / 0.1276)

No passes found over London.
GPS BIIR-14M